Regional Weather Roundup
Issued by NWS

Home | Current Version | Previous Version | Text Only | Print | Product List | Glossary On
Versions: 1 2 3 4 5 6 7 8 9 10 11 12 13 14 15 16 17 18 19 20 21 22 23 24 25 26 27 28 29 30 31 32 33 34 35 36 37 38 39 40 41 42 43 44 45 46 47 48 49 50
000
ASUS43 KDTX 291810
RWRMI
MICHIGAN HOURLY REGIONAL WEATHER ROUNDUP
NATIONAL WEATHER SERVICE DETROIT/PONTIAC MI
100 PM EST THU JAN 29 2015

NOTE: "FAIR" INDICATES FEW OR NO CLOUDS BELOW 12,000 FEET WITH NO
SIGNIFICANT WEATHER AND/OR OBSTRUCTION TO VISIBILITY.

MIZ047>049-052>055-059>063-066>070-074>076-081>083-291900-
SOUTHEAST LOWER MICHIGAN

CITY           SKY/WX    TMP DP  RH WIND       PRES   REMARKS
ADRIAN         FLURRIES  34  30  85 W8        29.73S
6HR MIN TEMP:  29; 6HR MAX TEMP:  35; 6HR PCP: TRACE;

ALMA           LGT SNOW  29  27  94 NW6       29.76S VSB 1
ANN ARBOR      CLOUDY    33  28  81 W5        29.71F
BAD AXE        FLURRIES  28  25  89 W6        29.73F
6HR MIN TEMP:  25; 6HR MAX TEMP:  28;

DETROIT CITY   CLOUDY    37  27  67 W5        29.71F
6HR MIN TEMP:  31; 6HR MAX TEMP:  37; 6HR PCP: TRACE;

DETROIT        CLOUDY    35  27  72 W5        29.72F
6HR MIN TEMP:  29; 6HR MAX TEMP:  35; 6HR PCP:  0.01;

FLINT          CLOUDY    32  26  78 NW7       29.73F HAZE
6HR MIN TEMP:  30; 6HR MAX TEMP:  34; 6HR PCP:  0.03;

GROSSE ILE     CLOUDY    36  30  80 CALM      29.70F
HILLSDALE      CLOUDY    35  32  87 NW9       29.71S
6HR MIN TEMP:  29; 6HR MAX TEMP:  35;

HOWELL         CLOUDY    32  27  81 W5        29.71F
6HR MIN TEMP:  27; 6HR MAX TEMP:  32;


CITY           SKY/WX    TMP DP  RH WIND       PRES   REMARKS
JACKSON        LGT SNOW  33  28  81 NW9       29.72F
6HR MIN TEMP:  29; 6HR MAX TEMP:  33; 6HR PCP:  0.01;

LAMBERTVILLE   CLOUDY    41  32  70 SW8       29.72S
LANSING        LGT SNOW  31  26  82 NW8       29.75S VSB 3/4
6HR MIN TEMP:  30; 6HR MAX TEMP:  32; 6HR PCP: TRACE;

LAPEER         NOT AVBL
MASON          CLOUDY    32  26  78 NW6       29.73S
MONROE         CLOUDY    37  30  75 W5        29.70S
MT. CLEMENS    CLOUDY    34  25  69 CALM      29.69F
6HR MIN TEMP:  28; 6HR MAX TEMP:  33; 6HR PCP: TRACE;

PONTIAC        LGTSLEET  31  24  75 W6        29.69F
6HR MIN TEMP:  27; 6HR MAX TEMP:  31; 6HR PCP: TRACE;

PORT HOPE        N/A     28  23  81 VRB3      29.72F
6HR MIN TEMP:  25; 6HR MAX TEMP:  28; 6HR PCP:  0.15;

PORT HURON     CLOUDY    32  25  74 CALM      29.72F
TRI CITIES     LGT SNOW  31  26  82 NW5       29.75F
6HR MIN TEMP:  28; 6HR MAX TEMP:  31; 6HR PCP:  0.03;

YPSILANTI      CLOUDY    36  27  69 W5        29.72F
6HR MIN TEMP:  31; 6HR MAX TEMP:  37; 6HR PCP: TRACE;

$$
MIZ043>046-050>051-056>058-064>065-071>073-077>080-291900-
SOUTHWEST LOWER MICHIGAN

CITY           SKY/WX    TMP DP  RH WIND       PRES   REMARKS
BATTLE CREEK   LGT SNOW  33  30  88 NW10      29.76S VSB 1
6HR MIN TEMP:  33; 6HR MAX TEMP:  36; 6HR PCP:  0.02;

BENTON HARBOR  CLOUDY    33  31  92 NW13G25   29.84R FOG
6HR MIN TEMP:  33; 6HR MAX TEMP:  36; 6HR PCP:  0.01;

BIG RAPIDS     FLURRIES  31  28  89 NW13      29.77S
6HR MIN TEMP:  26; 6HR MAX TEMP:  31; 6HR PCP:  0.01;

COLDWATER      LGT SNOW  34  30  85 NW9       29.74R
6HR MIN TEMP:  31; 6HR MAX TEMP:  35;

HOLLAND        LGT SNOW  34  29  82 NW14      29.82R
6HR MIN TEMP:  32; 6HR MAX TEMP:  34; 6HR PCP:  0.02;

GRAND RAPIDS   LGT SNOW  32  28  85 NW13      29.78S FOG
6HR MIN TEMP:  30; 6HR MAX TEMP:  32; 6HR PCP:  0.03;

KALAMAZOO      LGT SNOW  34  30  85 NW13      29.77S FOG
6HR MIN TEMP:  32; 6HR MAX TEMP:  34; 6HR PCP:  0.02;

MARSHALL       LGT SNOW  32  29  90 NW9       29.74R
MUSKEGON       LGT SNOW  34  28  79 NW15G24   29.83R
6HR MIN TEMP:  30; 6HR MAX TEMP:  33; 6HR PCP:  0.02;

$$
MIZ016>042-291900-
NORTHERN LOWER MICHIGAN

CITY           SKY/WX    TMP DP  RH WIND       PRES   REMARKS
ALPENA         LGT SNOW  26  23  88 NW6       29.75F FOG
6HR MIN TEMP:  23; 6HR MAX TEMP:  26; 6HR PCP:  0.34;

BEAVER ISLAND  CLOUDY    31  30  96 NW8       29.79F FOG
6HR MIN TEMP:  27; 6HR MAX TEMP:  31;

BELLAIRE       CLOUDY    30  26  87 W3        29.80S
6HR MIN TEMP:  25; 6HR MAX TEMP:  30;

CADILLAC       CLOUDY    29  26  88 NW12      29.75S
CHARLEVOIX     CLOUDY    30  28  92 NW9       29.82S FOG
6HR MIN TEMP:  25; 6HR MAX TEMP:  30;

FRANKFORT      CLOUDY    32  29  87 N12G21    29.83S
GAYLORD        CLOUDY    26  25  96 W6        29.74S FOG
6HR MIN TEMP:  21; 6HR MAX TEMP:  26; 6HR PCP:  0.17;

GRAYLING       CLOUDY    28  25  87 NW9       29.75S
6HR MIN TEMP:  22; 6HR MAX TEMP:  28;

HARBOR SPRINGS MIX PCPN  27  25  93 SW5       29.77F
HOUGHTON LAKE  LGT SNOW  28  24  85 NW9       29.74S FOG
6HR MIN TEMP:  23; 6HR MAX TEMP:  28; 6HR PCP:  0.12;

MANISTEE       CLOUDY    32  27  80 N14G24    29.84R
OSCODA         LGT SNOW  27  25  91 W6        29.73F
PELLSTON       CLOUDY    30  25  81 NW9       29.77F
6HR MIN TEMP:  25; 6HR MAX TEMP:  30; 6HR PCP:  0.03;

TRAVERSE CITY  LGT SNOW  32  27  81 N13       29.80R FOG
6HR MIN TEMP:  25; 6HR MAX TEMP:  32; 6HR PCP:  0.17;

$$
MIZ007>008-015-291900-
EASTERN UPPER MICHIGAN

CITY           SKY/WX    TMP DP  RH WIND       PRES   REMARKS
KINROSS        CLOUDY    28  27  93 W6        29.74F
6HR MIN TEMP:  23; 6HR MAX TEMP:  28;

MACKINAC ISLAN CLOUDY    28  27  96 W8        29.75F FOG
6HR MIN TEMP:  25; 6HR MAX TEMP:  28; 6HR PCP:  0.01;

NEWBERRY       CLOUDY    29  29  99 NW8       29.76S FOG
6HR MIN TEMP:  22; 6HR MAX TEMP:  29;

S. S. MARIE    CLOUDY    27  22  81 W3        29.73F
6HR MIN TEMP:  24; 6HR MAX TEMP:  27; 6HR PCP:  0.08;

$$
MIZ004>006-011>014-085-291900-
CENTRAL UPPER MICHIGAN

CITY           SKY/WX    TMP DP  RH WIND       PRES   REMARKS
MANISTIQUE     CLOUDY    30  26  83 NW16G24   29.81S
6HR MIN TEMP:  29; 6HR MAX TEMP:  31;

ESCANABA       CLOUDY    32  21  64 NW15G24   29.86F
6HR MIN TEMP:  28; 6HR MAX TEMP:  32;

MENOMINEE      CLOUDY    32  23  69 N10G23    29.89S
6HR MIN TEMP:  28; 6HR MAX TEMP:  32;

SAWYER-GWINN   LGT SNOW  27  23  86 N18G25    29.87R
$$
MIZ001>003-009>011-084-291900-
WESTERN UPPER MICHIGAN

CITY           SKY/WX    TMP DP  RH WIND       PRES   REMARKS
HOUGHTON       CLOUDY    23  18  81 NW24G32   29.96R
6HR MIN TEMP:  23; 6HR MAX TEMP:  30; 6HR PCP: TRACE;

COPPER HARBOR    N/A     20  16  84 NE29G40   29.97R
6HR MIN TEMP:  20; 6HR MAX TEMP:  32;

IRONWOOD       CLOUDY    25  19  80 NW21G29   30.03R
6HR MIN TEMP:  25; 6HR MAX TEMP:  28;

$$

ABBREVIATIONS USED IN REMARKS
   TC - TEMPERATURE IN CELSIUS
  WCI - WIND CHILL INDEX
   HX - HEAT INDEX
  VSB - VISIBILITY




USA.gov is the U.S. government's official web portal to all federal, state and local government web resources and services.